When you browse on this site, cookies collect data to enhance your experience and personalize the content and advertising you see.
Visit our Privacy Policy to learn more. By continuing to use the site, you agree to this use of cookies and data.

Previsão horária em Abay (Saryagashskiy rayon)

Hoje, 24 Setembro, Quinta-feira

Tempo Temperatura Precipitação Vento Pressão Humidade
00:00 +15°C° 0 mm 2 m/s 732 mmHg 25%
01:00 +15°C° 0 mm 2 m/s 732 mmHg 26%
02:00 +15°C° 0 mm 2 m/s 732 mmHg 26%
03:00 +14°C° 0 mm 2 m/s 732 mmHg 26%
04:00 +14°C° 0 mm 1 m/s 732 mmHg 26%
05:00 +13°C° 0 mm 1 m/s 732 mmHg 27%
06:00 +15°C° 0 mm 1 m/s 732 mmHg 25%
07:00 +16°C° 0 mm 1 m/s 733 mmHg 23%
08:00 +18°C° 0 mm 1 m/s 733 mmHg 21%
09:00 +21°C° 0 mm 1 m/s 733 mmHg 18%
10:00 +23°C° 0 mm 2 m/s 733 mmHg 16%
11:00 +25°C° 0 mm 2 m/s 734 mmHg 13%
12:00 +26°C° 0 mm 2 m/s 733 mmHg 12%
13:00 +27°C° 0 mm 3 m/s 733 mmHg 11%
14:00 +28°C° 0 mm 3 m/s 732 mmHg 9%
15:00 +28°C° 0 mm 3 m/s 732 mmHg 9%
16:00 +27°C° 0 mm 4 m/s 733 mmHg 9%
17:00 +27°C° 0 mm 4 m/s 733 mmHg 9%
18:00 +23°C° 0 mm 4 m/s 733 mmHg 12%
19:00 +21°C° 0 mm 4 m/s 732 mmHg 14%
20:00 +18°C° 0 mm 4 m/s 732 mmHg 17%
21:00 +18°C° 0 mm 4 m/s 732 mmHg 19%
22:00 +17°C° 0 mm 3 m/s 732 mmHg 21%
23:00 +16°C° 0 mm 3 m/s 732 mmHg 24%

Amanhã, 25 Setembro, Sexta-feira

Tempo Temperatura Precipitação Vento Pressão Humidade
00:00 +16°C° 0 mm 3 m/s 731 mmHg 24%
01:00 +14°C° 0 mm 3 m/s 731 mmHg 25%
02:00 +14°C° 0 mm 3 m/s 731 mmHg 26%
03:00 +15°C° 0 mm 2 m/s 731 mmHg 27%
04:00 +14°C° 0 mm 2 m/s 731 mmHg 28%
05:00 +14°C° 0 mm 2 m/s 731 mmHg 28%
06:00 +15°C° 0 mm 2 m/s 730 mmHg 26%
07:00 +15°C° 0 mm 2 m/s 730 mmHg 24%
08:00 +16°C° 0 mm 1 m/s 730 mmHg 21%
09:00 +20°C° 0 mm 1 m/s 730 mmHg 18%
10:00 +22°C° 0 mm 1 m/s 730 mmHg 15%
11:00 +25°C° 0 mm 1 m/s 730 mmHg 13%
12:00 +26°C° 0 mm 1 m/s 730 mmHg 12%
13:00 +27°C° 0 mm 1 m/s 730 mmHg 11%
14:00 +29°C° 0 mm 2 m/s 729 mmHg 10%
15:00 +28°C° 0 mm 2 m/s 729 mmHg 11%
16:00 +28°C° 0 mm 3 m/s 729 mmHg 11%
17:00 +28°C° 0 mm 3 m/s 729 mmHg 12%
18:00 +26°C° 0 mm 3 m/s 729 mmHg 16%
19:00 +22°C° 0 mm 3 m/s 729 mmHg 20%
20:00 +20°C° 0 mm 3 m/s 728 mmHg 24%
21:00 +19°C° 0 mm 3 m/s 728 mmHg 26%
22:00 +18°C° 0 mm 2 m/s 728 mmHg 28%
23:00 +17°C° 0 mm 2 m/s 728 mmHg 30%

Depois de amanhã, 26 Setembro, Sábado

Tempo Temperatura Precipitação Vento Pressão Humidade
00:00 +16°C° 0 mm 2 m/s 728 mmHg 30%
01:00 +16°C° 0 mm 2 m/s 727 mmHg 31%
02:00 +15°C° 0 mm 2 m/s 727 mmHg 31%
03:00 +14°C° 0 mm 2 m/s 727 mmHg 34%
04:00 +13°C° 0 mm 2 m/s 727 mmHg 36%
05:00 +13°C° 0 mm 2 m/s 727 mmHg 39%
06:00 +13°C° 0 mm 2 m/s 727 mmHg 38%
07:00 +13°C° 0 mm 3 m/s 727 mmHg 38%
08:00 +14°C° 0 mm 3 m/s 728 mmHg 38%
09:00 +17°C° 0 mm 3 m/s 728 mmHg 33%
10:00 +20°C° 0 mm 3 m/s 728 mmHg 28%
11:00 +22°C° 0 mm 3 m/s 728 mmHg 22%
12:00 +24°C° 0 mm 3 m/s 728 mmHg 20%
13:00 +25°C° 0 mm 3 m/s 728 mmHg 18%
14:00 +27°C° 0 mm 2 m/s 727 mmHg 16%
15:00 +26°C° 0 mm 2 m/s 727 mmHg 16%
16:00 +26°C° 0 mm 2 m/s 727 mmHg 16%
17:00 +26°C° 0 mm 2 m/s 727 mmHg 16%
18:00 +23°C° 0 mm 2 m/s 727 mmHg 19%
19:00 +20°C° 0 mm 2 m/s 727 mmHg 22%
20:00 +18°C° 0 mm 1 m/s 727 mmHg 26%
21:00 +16°C° 0 mm 1 m/s 727 mmHg 27%
22:00 +16°C° 0 mm 1 m/s 727 mmHg 28%
23:00 +15°C° 0 mm 1 m/s 727 mmHg 30%

27 Setembro, Domingo

Tempo Temperatura Precipitação Vento Pressão Humidade
00:00 +15°C° 0 mm 1 m/s 727 mmHg 30%
01:00 +14°C° 0 mm 1 m/s 727 mmHg 30%
02:00 +14°C° 0 mm 1 m/s 727 mmHg 30%
03:00 +14°C° 0 mm 1 m/s 727 mmHg 31%
04:00 +13°C° 0 mm 2 m/s 727 mmHg 32%
05:00 +13°C° 0 mm 2 m/s 727 mmHg 32%
06:00 +14°C° 0 mm 2 m/s 728 mmHg 31%
07:00 +15°C° 0 mm 2 m/s 728 mmHg 29%
08:00 +16°C° 0 mm 2 m/s 728 mmHg 28%
09:00 +18°C° 0 mm 2 m/s 728 mmHg 25%
10:00 +21°C° 0 mm 2 m/s 729 mmHg 21%
11:00 +24°C° 0 mm 3 m/s 729 mmHg 18%
12:00 +25°C° 0 mm 3 m/s 729 mmHg 17%
13:00 +27°C° 0 mm 3 m/s 729 mmHg 15%
14:00 +28°C° 0 mm 3 m/s 729 mmHg 14%
15:00 +28°C° 0 mm 3 m/s 729 mmHg 14%
16:00 +27°C° 0 mm 3 m/s 729 mmHg 14%
17:00 +27°C° 0 mm 2 m/s 729 mmHg 14%
18:00 +25°C° 0 mm 2 m/s 729 mmHg 16%
19:00 +21°C° 0 mm 2 m/s 729 mmHg 19%
20:00 +19°C° 0 mm 2 m/s 729 mmHg 22%
21:00 +19°C° 0 mm 1 m/s 729 mmHg 23%
22:00 +18°C° 0 mm 1 m/s 729 mmHg 25%
23:00 +16°C° 0 mm 1 m/s 728 mmHg 26%

28 Setembro, Segunda-feira

Tempo Temperatura Precipitação Vento Pressão Humidade
00:00 +16°C° 0 mm 1 m/s 728 mmHg 27%
01:00 +15°C° 0 mm 1 m/s 728 mmHg 29%
02:00 +14°C° 0 mm 1 m/s 728 mmHg 30%
03:00 +14°C° 0 mm 1 m/s 728 mmHg 32%
04:00 +13°C° 0 mm 1 m/s 729 mmHg 33%
05:00 +13°C° 0 mm 2 m/s 729 mmHg 35%
06:00 +13°C° 0 mm 2 m/s 729 mmHg 34%
07:00 +14°C° 0 mm 2 m/s 730 mmHg 33%
08:00 +15°C° 0 mm 2 m/s 730 mmHg 32%
09:00 +17°C° 0 mm 2 m/s 730 mmHg 28%
10:00 +19°C° 0 mm 2 m/s 730 mmHg 24%
11:00 +22°C° 0 mm 3 m/s 730 mmHg 20%
12:00 +24°C° 0 mm 3 m/s 731 mmHg 18%
13:00 +25°C° 0 mm 3 m/s 731 mmHg 17%
14:00 +26°C° 0 mm 3 m/s 731 mmHg 15%
15:00 +25°C° 0 mm 3 m/s 731 mmHg 15%
16:00 +25°C° 0 mm 3 m/s 731 mmHg 15%
17:00 +24°C° 0 mm 3 m/s 731 mmHg 16%
18:00 +21°C° 0 mm 2 m/s 731 mmHg 18%
19:00 +20°C° 0 mm 2 m/s 731 mmHg 21%
20:00 +18°C° 0 mm 2 m/s 731 mmHg 23%
21:00 +18°C° 0 mm 1 m/s 731 mmHg 24%
22:00 +18°C° 0 mm 1 m/s 731 mmHg 25%
23:00 +16°C° 0 mm 1 m/s 731 mmHg 26%

29 Setembro, Terça-feira

Tempo Temperatura Precipitação Vento Pressão Humidade
00:00 +16°C° 0 mm 1 m/s 731 mmHg 27%
01:00 +16°C° 0 mm 1 m/s 731 mmHg 27%
02:00 +16°C° 0 mm 2 m/s 731 mmHg 28%
03:00 +16°C° 0 mm 2 m/s 731 mmHg 29%
04:00 +15°C° 0 mm 2 m/s 731 mmHg 30%
05:00 +15°C° 0 mm 2 m/s 732 mmHg 31%
06:00 +15°C° 0 mm 2 m/s 732 mmHg 32%
07:00 +16°C° 0 mm 2 m/s 732 mmHg 32%
08:00 +16°C° 0 mm 2 m/s 732 mmHg 32%
09:00 +17°C° 0 mm 3 m/s 732 mmHg 28%
10:00 +19°C° 0 mm 4 m/s 732 mmHg 25%
11:00 +20°C° 0 mm 4 m/s 732 mmHg 21%
12:00 +21°C° 0 mm 4 m/s 733 mmHg 22%
13:00 +21°C° 0 mm 5 m/s 733 mmHg 22%
14:00 +21°C° 0 mm 5 m/s 733 mmHg 22%
15:00 +21°C° 0 mm 4 m/s 733 mmHg 25%
16:00 +20°C° 0 mm 4 m/s 733 mmHg 28%
17:00 +19°C° 0 mm 3 m/s 733 mmHg 31%
18:00 +18°C° 0 mm 2 m/s 733 mmHg 34%
19:00 +17°C° 0 mm 2 m/s 733 mmHg 38%
20:00 +18°C° 0 mm 1 m/s 733 mmHg 42%
21:00 +16°C° 0 mm 1 m/s 732 mmHg 45%
22:00 +15°C° 0 mm 1 m/s 732 mmHg 48%
23:00 +14°C° 0 mm 1 m/s 732 mmHg 51%
Mostrar mais